Regional Weather Roundup
Issued by NWS

Home | Current Version | Previous Version | Text Only | Print | Product List | Glossary On
Versions: 1 2 3 4 5 6 7 8 9 10 11 12 13 14 15 16 17 18 19 20 21 22 23 24 25 26 27 28 29 30 31 32 33 34 35 36 37 38 39 40 41 42 43 44 45 46 47 48 49 50
000
ASUS43 KLOT 011221
RWRIL

ILLINOIS REGIONAL WEATHER ROUNDUP
NATIONAL WEATHER SERVICE CHICAGO/ROMEOVILLE IL
700 AM CDT WED JUL 01 2015

NOTE: "FAIR" INDICATES FEW OR NO CLOUDS BELOW 12,000 FEET WITH NO
SIGNIFICANT WEATHER AND/OR OBSTRUCTIONS TO VISIBILITY.

* THESE STATIONS ARE NOT UNDER NWS QUALITY CONTROL. THEY ALSO MAY NOT
  REPORT WEATHER SUCH AS PRECIPITATION OR FOG.

ILZ001-002-007-009-015-016-024-011300-
NORTHWEST ILLINOIS

CITY           SKY/WX    TMP DP  RH WIND       PRES   REMARKS
MOLINE         CLOUDY    63  59  87 E8        29.92R FOG
6HR MIN TEMP:  63; 6HR MAX TEMP:  69;

STERLING*      MOSUNNY   59  55  88 E8        29.95S
SAVANNA*       CLOUDY    60  58  92 E7        29.96R FOG
$$

ILZ003-004-008-010-011-017-018-011300-
NORTH CENTRAL ILLINOIS

CITY           SKY/WX    TMP DP  RH WIND       PRES   REMARKS
ROCKFORD       CLOUDY    59  54  83 E6        29.98R
6HR MIN TEMP:  57; 6HR MAX TEMP:  61;

FREEPORT*      CLOUDY    58  55  92 E6        29.98R
ROCHELLE*      CLOUDY    57  55  94 CALM      29.97R
DE KALB*       CLOUDY    55  52  89 E5        29.97R
PERU*          MOSUNNY   60  58  94 E5        29.96R FOG
$$

ILZ005-006-012>014-019>023-011300-
NORTHEAST ILLINOIS

CITY           SKY/WX    TMP DP  RH WIND       PRES   REMARKS
CHICAGO-OHARE  CLOUDY    57  51  80 NE3       29.97R
6HR MIN TEMP:  56; 6HR MAX TEMP:  57;

CHICAGO-MIDWAY PTSUNNY   60  53  77 NE12      29.96R
6HR MIN TEMP:  59; 6HR MAX TEMP:  61;

AURORA         CLOUDY    59  52  77 E6        29.96R
6HR MIN TEMP:  57; 6HR MAX TEMP:  60;

LANSING*       PTSUNNY   58  51  76 NE7       29.96R
JOLIET*        CLOUDY    60  55  83 NE8       29.96R
WAUKEGAN       CLOUDY    55  51  86 CALM      29.96R
6HR MIN TEMP:  49; 6HR MAX TEMP:  55;

DUPAGE AIRPORT CLOUDY    57  51  80 NE6       29.96R
6HR MIN TEMP:  57; 6HR MAX TEMP:  58;

KANKAKEE*      PTSUNNY   59  56  91 NE6       29.96R
WHEELING       CLOUDY    56  51  84 NE3       29.98R
6HR MIN TEMP:  55; 6HR MAX TEMP:  57;

MORRIS*        SUNNY     58  56  90 CALM      29.93R
ROMEOVILLE*    CLOUDY    58  53  82 NE9       29.96R
NORTHERLY ISL    N/A     57  52  83 NE8         N/A
$$

LMZ740>746-011300-
SOUTHERN LAKE MICHIGAN

STATION/POSITION SKY/WX   TEMP    WIND        PRES    VSBY  WAVE
                          AIR SEA DIR/SP/G                  HT/PER
                          (F)     (DEG/KT/KT) (MB)    (MI)  (FT/S)
HARRISON CRIB              56      20/  8/ 10   N/A
BURNHAM HARBOR             57     360/  5/  9   N/A
CALUMET HARBOR             57      10/  6/ 11   N/A
BURNS HARBOR               58      20/ 15/ 18 1014.2S
MICHIGAN CITY              58     350/ 12/ 15   N/A
MICHIGAN CITY 6N           58 65   20/ 10/ 16   N/A           4/ 5
ST. JOSEPH                 59 63                N/A           4/ 6
$$

ILZ025>027-034>036-040-047-049-050-058-095>099-011300-
WEST-CENTRAL ILLINOIS

CITY           SKY/WX    TMP DP  RH WIND       PRES   REMARKS
QUINCY         CLOUDY    70  66  87 W3        29.90S FOG
GALESBURG*     MOSUNNY   64  63  95 NE3       29.91F FOG
MACOMB*        CLOUDY    66  65  97 NE3       29.92F FOG
JACKSONVILLE*  CLOUDY    71  69  93 SW3       29.90S FOG
PITTSFIELD*    CLOUDY    69  65  86 CALM      29.91S
$$

ILZ028>032-037-038-041>044-048-051>054-059>061-011300-
CENTRAL ILLINOIS

CITY           SKY/WX    TMP DP  RH WIND       PRES   REMARKS
PONTIAC        CLOUDY    61  59  94 E6        29.95S
BLOOMINGTON    CLOUDY    63  62  96 E6        29.94S FOG
DECATUR        PTSUNNY   65  63  93 E3        29.92R FOG
PEORIA         PTSUNNY   69  63  81 E5        29.91S HAZE
6HR MIN TEMP:  68; 6HR MAX TEMP:  70;

LACON*         PTSUNNY   61  57  89 E3        29.93S
LINCOLN*       CLOUDY    68  65  90 E3        29.92S FOG
SPRINGFIELD    PTSUNNY   71  68  90 CALM      29.89F FOG
6HR MIN TEMP:  68; 6HR MAX TEMP:  71;

TAYLORVILLE    PTSUNNY   66  66 100 CALM      29.90F FOG
$$

ILZ033-039-045-046-055>057-062-063-011300-
EAST-CENTRAL ILLINOIS

CITY           SKY/WX    TMP DP  RH WIND       PRES   REMARKS
CHAMPAIGN      CLOUDY    64  62  93 E7        29.93R FOG
DANVILLE*      MOSUNNY   61  59  94 E3        29.92R FOG
RANTOUL*       CLOUDY    64  61  90 E6        29.94R FOG
MATTOON          N/A     65  64  97 NE6       29.91R FOG
PARIS*         MOSUNNY   65  64  99 E3        29.94R FOG
$$

ILZ079-100>102-011300-
SOUTHWEST ILLINOIS

CITY           SKY/WX    TMP DP  RH WIND       PRES   REMARKS
ALTON          PTSUNNY   70  70 100 W6        29.91S FOG
BELLEVILLE     CLOUDY    72  72 100 SW5       29.89F
CAHOKIA*       CLOUDY    72  68  87 S6        29.91S
SPARTA*        LGT RAIN  71  68  92 W3        29.95R
$$

ILZ064>066-069>071-074>076-080>082-084>086-088>090-092>094-011300-
SOUTH-CENTRAL ILLINOIS

CITY           SKY/WX    TMP DP  RH WIND       PRES   REMARKS
CARBONDALE     LGT RAIN  73  69  87 W6        29.94R FOG
6HR MIN TEMP:  70; 6HR MAX TEMP:  73; 6HR PCP:  0.02;

CAIRO*         LGT RAIN  75  73  93 CALM      29.94R
EFFINGHAM*     CLOUDY    68  65  92 CALM      29.93R FOG
MARION         LGT RAIN  73  72  94 NW6       29.95R
MT. VERNON     CLOUDY    72  66  83 CALM      29.93S
CENTRALIA*     CLOUDY    71  68  90 W5        29.93R FOG
SALEM*         CLOUDY    72  69  92 CALM      29.93R FOG
METROPOLIS*    LGT RAIN  74  74 100 CALM      29.94R
$$

ILZ067-068-072-073-078-083-087-091-011300-
SOUTHEAST ILLINOIS

CITY           SKY/WX    TMP DP  RH WIND       PRES   REMARKS
LAWRENCEVILLE  PTSUNNY   68  67  96 CALM      29.91F FOG
FLORA*         PTSUNNY   69  69  98 CALM      29.92R FOG
FAIRFIELD*     CLOUDY    70  69  96 CALM      29.91R FOG
HARRISBURG*    LGT RAIN  71  71 100 CALM      29.94R
ROBINSON*      PTSUNNY   65  65  97 CALM      29.91S FOG
CARMI*         CLOUDY    70  65  84 CALM      29.92R HAZE
$$

ABBREVIATIONS USED IN REMARKS
   TC - TEMPERATURE IN CELSIUS
  WCI - WIND CHILL INDEX
   HX - HEAT INDEX
  VSB - VISIBILITY
$$



USA.gov is the U.S. government's official web portal to all federal, state and local government web resources and services.